Weather History for KVUJ - November, 2012

Change the Weather History Date:

Tuesday, November 13, 2012

  Actual Average (KHBI) Record (KHBI)
Temperature  
Mean Temperature 48 °F -  
Max Temperature 61 °F 61 °F 80 °F (1955)
Min Temperature 36 °F 39 °F 22 °F (2013)
Degree Days  
Heating Degree Days 16    
Moisture  
Dew Point 44 °F    
Average Humidity 89    
Maximum Humidity 100    
Minimum Humidity 56    
Precipitation  
Precipitation 0.11 in - - ()
Sea Level Pressure  
Sea Level Pressure 30.34 in    
Wind  
Wind Speed 5 mph (NNE)    
Max Wind Speed 16 mph    
Max Gust Speed 18 mph    
Visibility 10 miles    
Events Rain    
Averages and records for this station are not official NWS values.
T = Trace of Precipitation, MM = Missing Value Source: NWS Daily Summary

Daily Weather History Graph

Daily Weather History Graph

Search for Another Location

Airport or City:

Trip Planner

Search our weather history database for the weather conditions in past years. The results will help you decide how hot, cold, wet, or windy it might be!

Date:

Astronomy

Nov. 13, 2012 Rise Set
Actual Time 6:54 AM EST 5:15 PM EST
Civil Twilight 6:27 AM EST 5:42 PM EST
Nautical Twilight 5:56 AM EST 6:12 PM EST
Astronomical Twilight 5:26 AM EST 6:42 PM EST
Moon 6:30 AM EST (11/13) 5:07 PM EST (11/13)
Length of Visible Light 11h 14m
Length of Day
10h 20m
Waning Crescent, 0% of the Moon is Illuminated
Nov 13
Waning Crescent
Nov 13
New
Nov 20
First Quarter
Nov 28
Full
Dec 6
Last Quarter

Hourly Weather History & Observations

Time (EST) Temp. Windchill Dew Point Humidity Pressure Visibility Wind Dir Wind Speed Gust Speed Precip Events Conditions
12:15 AM 61.2 °F - 60.4 °F 97% 30.22 in 7.0 mi South 3.5 mph - N/A   Overcast
12:35 AM 61.2 °F - 60.1 °F 96% 30.22 in 10.0 mi South 4.6 mph - N/A   Mostly Cloudy
12:55 AM 60.6 °F - 59.5 °F 96% 30.22 in 10.0 mi Calm Calm - N/A   Scattered Clouds
1:15 AM 60.3 °F - 59.7 °F 98% 30.21 in 10.0 mi Calm Calm - N/A   Overcast
1:35 AM 60.8 °F - 59.9 °F 97% 30.21 in 10.0 mi Calm Calm - N/A   Overcast
1:55 AM 60.8 °F - 59.9 °F 97% 30.21 in 10.0 mi Calm Calm - N/A   Overcast
2:15 AM 60.4 °F - 59.9 °F 98% 30.21 in 10.0 mi Calm Calm - N/A   Overcast
2:35 AM 59.5 °F - 59.2 °F 99% 30.21 in 7.0 mi Calm Calm - N/A   Overcast
2:55 AM 59.9 °F - 59.9 °F 100% 30.20 in 7.0 mi Calm Calm - N/A   Overcast
3:15 AM 57.4 °F - 55.6 °F 94% 30.22 in 10.0 mi North 16.1 mph - N/A   Overcast
3:35 AM 53.2 °F - 52.2 °F 96% 30.23 in 5.0 mi NNW 11.5 mph - 0.02 in Rain Heavy Rain
3:55 AM 52.5 °F - 51.3 °F 95% 30.23 in 7.0 mi North 11.5 mph 18.4 mph 0.05 in Rain Light Rain
4:15 AM 51.3 °F - 50.0 °F 95% 30.25 in 10.0 mi North 6.9 mph - N/A   Drizzle
4:35 AM 50.9 °F - 49.6 °F 95% 30.26 in 7.0 mi NNE 5.8 mph - 0.01 in Rain Heavy Rain
4:55 AM 50.2 °F - 49.5 °F 97% 30.28 in 5.0 mi NNW 3.5 mph - 0.03 in Rain Heavy Rain
5:15 AM 50.0 °F - 49.1 °F 97% 30.27 in 7.0 mi NNE 9.2 mph - N/A Rain Rain
5:35 AM 48.9 °F - 47.7 °F 95% 30.27 in 7.0 mi North 8.1 mph 18.4 mph 0.02 in   Drizzle
5:55 AM 48.4 °F - 47.3 °F 96% 30.29 in 10.0 mi North 6.9 mph - 0.02 in   Overcast
6:15 AM 48.2 °F - 47.3 °F 97% 30.29 in 10.0 mi North 4.6 mph - N/A Rain Rain
6:35 AM 47.8 °F - 46.9 °F 97% 30.29 in 10.0 mi North 4.6 mph - N/A   Drizzle
6:55 AM 47.7 °F - 47.1 °F 98% 30.30 in 10.0 mi North 5.8 mph - N/A   Overcast
7:15 AM 47.5 °F - 46.8 °F 97% 30.31 in 10.0 mi North 4.6 mph - N/A   Overcast
7:35 AM 46.8 °F - 46.2 °F 98% 30.32 in 7.0 mi North 5.8 mph - N/A   Drizzle
7:55 AM 46.6 °F - 45.5 °F 96% 30.33 in 10.0 mi North 8.1 mph - N/A   Overcast
8:15 AM 46.6 °F - 45.7 °F 97% 30.34 in 10.0 mi NNE 6.9 mph - N/A Rain Light Rain
8:35 AM 46.6 °F - 46.0 °F 98% 30.35 in 10.0 mi NNE 8.1 mph - N/A Rain Rain
8:55 AM 46.8 °F - 45.5 °F 95% 30.36 in 7.0 mi North 9.2 mph - N/A   Light Drizzle
9:15 AM 46.6 °F - 45.3 °F 95% 30.36 in 10.0 mi NNE 11.5 mph - N/A Rain Light Rain
9:35 AM 46.0 °F 43.1 °F 44.6 °F 95% 30.38 in 10.0 mi NNE 5.8 mph - 0.01 in Rain Rain
9:55 AM 45.9 °F 40.8 °F 43.9 °F 93% 30.38 in 10.0 mi NE 10.4 mph 16.1 mph 0.01 in   Overcast
10:15 AM 45.5 °F 40.3 °F 43.0 °F 91% 30.38 in 10.0 mi NNE 10.4 mph 17.3 mph N/A   Overcast
10:35 AM 45.5 °F 40.3 °F 43.0 °F 91% 30.38 in 10.0 mi NE 10.4 mph - N/A   Overcast
10:55 AM 45.7 °F 41.0 °F 42.8 °F 90% 30.39 in 10.0 mi NNE 9.2 mph 18.4 mph N/A   Overcast
11:15 AM 46.4 °F 42.4 °F 43.0 °F 88% 30.38 in 10.0 mi NNE 8.1 mph - N/A   Overcast
11:35 AM 46.4 °F 41.5 °F 43.0 °F 88% 30.38 in 10.0 mi NE 10.4 mph 16.1 mph N/A   Overcast
11:55 AM 47.3 °F - 43.2 °F 86% 30.37 in 10.0 mi NNE 8.1 mph - N/A   Overcast
12:15 PM 47.5 °F - 43.5 °F 86% 30.36 in 10.0 mi NNE 10.4 mph - N/A   Overcast
12:35 PM 47.8 °F - 43.5 °F 85% 30.36 in 10.0 mi NNE 6.9 mph - N/A   Overcast
12:55 PM 48.6 °F - 43.2 °F 82% 30.35 in 10.0 mi NNE 8.1 mph - N/A   Overcast
1:15 PM 49.3 °F - 43.0 °F 79% 30.35 in 10.0 mi NNE 9.2 mph - N/A   Overcast
1:35 PM 51.1 °F - 43.5 °F 75% 30.34 in 10.0 mi NE 10.4 mph - N/A   Overcast
1:55 PM 50.2 °F - 42.1 °F 74% 30.33 in 10.0 mi NE 11.5 mph 17.3 mph N/A   Mostly Cloudy
2:15 PM 51.8 °F - 42.8 °F 71% 30.33 in 10.0 mi NE 8.1 mph - N/A   Mostly Cloudy
2:35 PM 52.2 °F - 41.0 °F 66% 30.33 in 10.0 mi NE 8.1 mph - N/A   Scattered Clouds
2:55 PM 52.7 °F - 40.1 °F 62% 30.33 in 10.0 mi NE 8.1 mph - N/A   Clear
3:15 PM 52.9 °F - 39.4 °F 60% 30.34 in 10.0 mi ENE 8.1 mph - N/A   Clear
3:35 PM 53.1 °F - 38.7 °F 58% 30.34 in 10.0 mi NE 9.2 mph - N/A   Clear
3:55 PM 52.7 °F - 38.8 °F 59% 30.34 in 10.0 mi ENE 9.2 mph - N/A   Clear
4:15 PM 52.7 °F - 38.3 °F 58% 30.34 in 10.0 mi NE 9.2 mph - N/A   Clear
4:35 PM 52.0 °F - 36.7 °F 56% 30.34 in 10.0 mi NNE 8.1 mph - N/A   Clear
4:55 PM 50.4 °F - 37.2 °F 61% 30.35 in 10.0 mi NE 5.8 mph - N/A   Clear
5:15 PM 48.2 °F - 37.8 °F 67% 30.35 in 10.0 mi NE 3.5 mph - N/A   Clear
5:35 PM 47.3 °F - 38.7 °F 72% 30.35 in 10.0 mi Calm Calm - N/A   Clear
5:55 PM 42.8 °F - 38.5 °F 85% 30.36 in 10.0 mi Calm Calm - N/A   Clear
6:15 PM 41.7 °F 39.8 °F 38.7 °F 89% 30.37 in 10.0 mi North 3.5 mph - N/A   Clear
6:35 PM 41.7 °F 39.8 °F 38.5 °F 88% 30.37 in 10.0 mi North 3.5 mph - N/A   Clear
6:55 PM 40.1 °F - 38.8 °F 95% 30.38 in 10.0 mi Calm Calm - N/A   Clear
7:15 PM 37.9 °F - 36.9 °F 96% 30.39 in 10.0 mi Calm Calm - N/A   Clear
7:35 PM 37.9 °F - 37.0 °F 97% 30.39 in 10.0 mi Calm Calm - N/A   Clear
7:55 PM 39.0 °F - 37.9 °F 96% 30.40 in 10.0 mi Calm Calm - N/A   Clear
8:15 PM 38.5 °F 36.1 °F 36.7 °F 93% 30.41 in 10.0 mi NNE 3.5 mph - N/A   Clear
8:35 PM 39.2 °F 37.0 °F 37.2 °F 93% 30.42 in 10.0 mi NNE 3.5 mph - N/A   Clear
8:55 PM 37.8 °F - 36.3 °F 95% 30.42 in 10.0 mi Calm Calm - N/A   Clear
9:15 PM 37.8 °F 35.3 °F 36.9 °F 97% 30.42 in 10.0 mi NNE 3.5 mph - N/A   Clear
9:35 PM 37.6 °F 35.1 °F 36.7 °F 97% 30.43 in 10.0 mi North 3.5 mph - N/A   Clear
9:55 PM 36.9 °F 34.3 °F 35.8 °F 96% 30.44 in 10.0 mi North 3.5 mph - N/A   Clear
10:15 PM 39.0 °F 34.8 °F 38.1 °F 97% 30.44 in 10.0 mi North 5.8 mph - N/A   Clear
10:35 PM 38.7 °F 35.2 °F 37.6 °F 96% 30.44 in 10.0 mi North 4.6 mph - N/A   Clear
10:55 PM 39.0 °F 35.7 °F 37.9 °F 96% 30.44 in 10.0 mi North 4.6 mph - N/A   Clear
11:15 PM 38.3 °F 35.9 °F 37.2 °F 96% 30.45 in 10.0 mi NNE 3.5 mph - N/A   Clear
11:35 PM 38.7 °F 36.3 °F 37.8 °F 97% 30.45 in 10.0 mi NNE 3.5 mph - N/A   Clear
11:55 PM 37.9 °F 34.4 °F 37.2 °F 97% 30.44 in 10.0 mi NNE 4.6 mph - N/A   Clear